Regional Weather Roundup
Issued by NWS

Home | Current Version | Previous Version | Graphics & Text | Print | Product List | Glossary On
Versions: 1 2 3 4 5 6 7 8 9 10 11 12 13 14 15 16 17 18 19 20 21 22 23 24 25 26 27 28 29 30 31 32 33 34 35 36 37 38 39 40 41 42 43 44 45 46 47 48 49 50
000
ASUS43 KMKX 292000
RWRWI

WISCONSIN REGIONAL WEATHER ROUNDUP
NATIONAL WEATHER SERVICE MILWAUKEE/SULLIVAN WI
300 PM CDT WED JUL 29 2015

NOTE: "FAIR" INDICATES FEW OR NO CLOUDS BELOW 12,000 FEET WITH NO
SIGNIFICANT WEATHER AND/OR OBSTRUCTIONS TO VISIBILITY.

WIZ001-002-006>008-014>016-023>028-292100-
NORTHWEST WISCONSIN

CITY           SKY/WX    TMP DP  RH WIND       PRES   REMARKS
SUPERIOR ARPT  CLOUDY    72  58  62 W13       29.79R
ASHLAND        CLOUDY    71  58  63 SW9G17    29.81R
HAYWARD        CLOUDY    74  54  49 W14G24    29.86S
SIREN          MOSUNNY   79  51  37 W21G32    29.87F
CUMBERLAND     SUNNY     75  52  43 W20G37    29.90S
RICE LAKE      MOSUNNY   77  56  48 SW17G25   29.91S
CHETEK         SUNNY    N/A N/A N/A W13       29.90S
LADYSMITH      MOSUNNY   78  55  45 W15G28    29.90S
EAU CLAIRE     NOT AVBL
MENOMONIE      SUNNY     81  53  38 W18G29    29.92S HX  80
NEW RICHMOND   SUNNY     79  51  37 W21G33    29.92F
OSCEOLA        MOSUNNY   80  56  43 W23G32    29.94S HX  80
$$

WIZ003>005-009-010-017-018-292100-
NORTH CENTRAL WISCONSIN

CITY           SKY/WX    TMP DP  RH WIND       PRES   REMARKS
MANITOWISH WTR CLOUDY    72  54  53 W23G35    29.85R
ARBOR VITAE    PTSUNNY   77  57  49 W17G25    29.85R
WOODRUFF       PTSUNNY   77  57  49 W17G25    29.85R
RHINELANDER    PTSUNNY   79  53  40 W25G36    29.87R
EAGLE RIVER    CLOUDY    77  50  38 W20       29.84R
LAND O LAKES   CLOUDY    74  51  44 W17G26    29.85R
PHILLIPS       PTSUNNY   76  56  50 W13G22    29.87R
TOMAHAWK       PTSUNNY   76  53  45 W17G32    29.88R
MEDFORD        MOSUNNY   77  55  45 W23G32    29.90S
MERRILL        NOT AVBL
$$

WIZ029-030-035-036-043>047-292100-
CENTRAL WISCONSIN

CITY           SKY/WX    TMP DP  RH WIND       PRES   REMARKS
WAUSAU         SUNNY     82  50  32 W25G38    29.87S HX  81
MOSINEE        SUNNY     81  48  32 W26G37    29.90S HX  80
MARSHFIELD     SUNNY     81  49  32 W24G37    29.91S HX  80
STEVENS POINT  SUNNY     81  50  33 W15G28    29.91S HX  80
WAUPACA        SUNNY     86  46  24 W23G29    29.90S HX  83
WAUTOMA        NOT AVBL
WISC RAPIDS    SUNNY     84  46  26 W20G37    29.92F HX  82
CAMP DOUGLAS   NOT AVBL
$$

WIZ011>013-019>022-031-037>040-048>050-292100-
NORTHEAST WISCONSIN

CITY           SKY/WX    TMP DP  RH WIND       PRES   REMARKS
ANTIGO         SUNNY     80  52  38 W26G33    29.87S HX  80
SHAWANO        SUNNY     84  49  29 W21G31    29.86S HX  82
OCONTO         SUNNY     85  52  31 W21G26    29.83S HX  83
STURGEON BAY   SUNNY     82  52  34 W20G30    29.85S HX  81
GREEN BAY      SUNNY     84  52  33 W22G29    29.86F HX  82
MANITOWOC      NOT AVBL
APPLETON       MOSUNNY   82  46  28 W22G28    29.90S HX  81
CLINTONVILLE   SUNNY     82  45  26 W17G30    29.86S HX  80
OSHKOSH        SUNNY     83  51  33 W10G24    29.90F HX  81
$$

WIZ032>034-041-042-053>061-292100-
SOUTHWEST WISCONSIN

CITY           SKY/WX    TMP DP  RH WIND       PRES   REMARKS
LA CROSSE      SUNNY     84  52  33 W24G35    29.96S HX  82
SPARTA         SUNNY     83  49  30 W16G26    29.96F HX  81
VIROQUA        SUNNY     80  54  40 NW10G23   30.01S HX  80
BOSCOBEL       SUNNY     87  55  33 NW10      30.00F HX  85
PRAIRIE DU CHI SUNNY     84  46  27 W21G28    30.01F HX  81
PLATTEVILLE    SUNNY     81  55  41 W18G28    30.04S HX  81
$$

WIZ056-057-062-063-064-067-068-292100-
SOUTH CENTRAL WISCONSIN

CITY           SKY/WX    TMP DP  RH WIND       PRES   REMARKS
REEDSBURG      SUNNY     84  51  31 W16G25    29.97F HX  82
BARABOO/DELLS  SUNNY     84  45  25 W17G26    29.97S HX  82
LONE ROCK      NOT AVBL
MINERAL POINT  MOSUNNY   82  48  30 W16G22    30.03S HX  81
MADISON        MOSUNNY   83  50  31 W14G22    29.97F HX  81
MIDDLETON      SUNNY     85  43  22 W15G28    30.00S HX  82
WATERTOWN      SUNNY     82  55  38 W14G22    29.97F HX  81
MONROE         SUNNY     82  52  34 W17G23    30.03S HX  81
JANESVILLE     SUNNY     86  48  26 W13G20    30.00S HX  83
$$

WIZ051-052-058>065-066-070>072-292100-
SOUTHEAST WISCONSIN

CITY           SKY/WX    TMP DP  RH WIND       PRES   REMARKS
MILWAUKEE      MOSUNNY   86  50  28 W15       29.94F HX  84
WAUKESHA       SUNNY     82  50  32 W22       29.98S HX  81
MILWAUKEE/TIMM SUNNY     84  46  26 W21       29.96S HX  82
RACINE         SUNNY     85  49  28 W12G26    29.97F HX  83
BURLINGTON     SUNNY     82  49  31 W14       29.99S HX  81
KENOSHA        SUNNY     83  53  35 W18G30    29.97F HX  82
FOND DU LAC    SUNNY     85  49  28 W15G28    29.92F HX  83
SHEBOYGAN      SUNNY     84  52  33 W20G29    29.90F HX  82
WEST BEND      SUNNY     82  46  28 W20       29.94F HX  81
JUNEAU         SUNNY     80  53  39 W15G23    29.97S HX  80
$$

LSZ147-162-292100-
LAKE SUPERIOR

STATION/POSITION TIME  TEMP    WIND        PRES    WAVE
                       AIR SEA DIR/SP/G            HT/PER
                 (UTC) (F)     (DEG/KT/KT) (MB)    (FT/S)
W MID LAKE BUOY  1850   64 56  240/ 23/ 27 1005.6R   7/ 7
DEVILS ISLAND    1900   68     240/ 29/ 34 1006.9R
PORT WING        1900   71     230/ 12/ 21 1008.8R
SAXON HARBOR     1905   73                 1009.1R
$$

LMZ867-665-643>646-292100-
LAKE MICHIGAN

STATION/POSITION TIME  TEMP    WIND        PRES    WAVE
                       AIR SEA DIR/SP/G            HT/PER
                 (UTC) (F)     (DEG/KT/KT) (MB)    (FT/S)
CHAMBERS ISLAND  1900   80     200/  9/ 15 1009.1S
S GREEN BAY BUOY 1930   75 70  250/ 17/ 23 1011.6
N MID LAKE BUOY  1850   73 70  210/ 19/ 23 1008.5F   3/ 4
NORTHPORT PIER   1900   82     240/  7/ 18 1008.8F
SISTER BAY       1914   83     280/ 18/ 20   N/A
ALGOMA LAKESHORE 1912          270/ 13/ 23   N/A
KEWAUNEE LAKESHO 1918   83                   N/A
SHEBOYGAN LAKESH 1900   82     250/ 17/ 21 1012.5F
PORT WASHINGTON  1900   86     250/ 11/ 20 1013.9
ATWATER BUOY     1900   77     260/ 14/ 16 1015.5S
MILWAUKEE LAKESH 1900   82     280/ 18/ 22   N/A
KENOSHA   LAKESH 1900   82     290/ 12/ 24 1014.2F
$$

TC  - TEMPERATURE IN CELSIUS
VSB - VISIBILITY IN STATUTE MILES
WCI - WIND CHILL INDEX
HX  - HEAT INDEX




USA.gov is the U.S. government's official web portal to all federal, state and local government web resources and services.